When you browse on this site, cookies collect data to enhance your experience and personalize the content and advertising you see.
Visit our Privacy Policy to learn more. By continuing to use the site, you agree to this use of cookies and data.
  • In Latvia
  • List of Countries
  • For 7 days
  • Water Temperature
  • Weather Map
  • Weather Widgets
  • user-avatar
    Login

    Hourly Weather Havana

    Today, 26 January, Sunday

    Time Temperature Precipitation Wind Pressure Humidity
    00:00 +20°C° 0 mm 5 mps 763 mmHg 81%
    01:00 +20°C° 0 mm 6 mps 763 mmHg 77%
    02:00 +20°C° 0 mm 5 mps 762 mmHg 78%
    03:00 +20°C° 0 mm 5 mps 762 mmHg 78%
    04:00 +19°C° 0 mm 4 mps 762 mmHg 79%
    05:00 +19°C° 0 mm 4 mps 762 mmHg 79%
    06:00 +19°C° 0 mm 4 mps 762 mmHg 80%
    07:00 +19°C° 0 mm 4 mps 762 mmHg 81%
    08:00 +21°C° 0 mm 4 mps 763 mmHg 77%
    09:00 +22°C° 0 mm 4 mps 763 mmHg 73%
    10:00 +25°C° 0 mm 5 mps 764 mmHg 68%
    11:00 +25°C° 0 mm 4 mps 763 mmHg 66%
    12:00 +26°C° 0 mm 4 mps 762 mmHg 65%
    13:00 +26°C° 0 mm 4 mps 762 mmHg 63%
    14:00 +26°C° 0 mm 4 mps 761 mmHg 64%
    15:00 +26°C° 0 mm 4 mps 761 mmHg 66%
    16:00 +26°C° 0 mm 4 mps 761 mmHg 67%
    17:00 +23°C° 0 mm 4 mps 761 mmHg 74%
    18:00 +21°C° 0 mm 4 mps 761 mmHg 81%
    19:00 +20°C° 0 mm 4 mps 761 mmHg 87%
    20:00 +19°C° 0 mm 4 mps 761 mmHg 88%
    21:00 +19°C° 0 mm 3 mps 762 mmHg 89%
    22:00 +19°C° 0 mm 3 mps 762 mmHg 90%
    23:00 +19°C° 0 mm 3 mps 762 mmHg 91%

    Tomorrow, 27 January, Monday

    Time Temperature Precipitation Wind Pressure Humidity
    00:00 +19°C° 0 mm 2 mps 761 mmHg 92%
    01:00 +19°C° 0 mm 2 mps 761 mmHg 92%
    02:00 +19°C° 0 mm 1 mps 760 mmHg 92%
    03:00 +19°C° 0 mm 1 mps 760 mmHg 92%
    04:00 +19°C° 0 mm 1 mps 760 mmHg 92%
    05:00 +19°C° 0 mm 1 mps 760 mmHg 92%
    06:00 +19°C° 0 mm 1 mps 760 mmHg 92%
    07:00 +19°C° 0 mm 1 mps 761 mmHg 92%
    08:00 +21°C° 0 mm 1 mps 761 mmHg 85%
    09:00 +23°C° 0 mm 1 mps 761 mmHg 79%
    10:00 +25°C° 0 mm 1 mps 762 mmHg 73%
    11:00 +26°C° 0.1 mm 1 mps 761 mmHg 70%
    12:00 +26°C° 0.1 mm 1 mps 761 mmHg 68%
    13:00 +27°C° 0.1 mm 1 mps 760 mmHg 66%
    14:00 +27°C° 0 mm 1 mps 760 mmHg 63%
    15:00 +28°C° 0 mm 2 mps 759 mmHg 61%
    16:00 +28°C° 0 mm 2 mps 758 mmHg 58%
    17:00 +27°C° 0.1 mm 2 mps 759 mmHg 65%
    18:00 +25°C° 0.1 mm 1 mps 759 mmHg 72%
    19:00 +24°C° 0.1 mm 1 mps 759 mmHg 79%
    20:00 +23°C° 0.3 mm 2 mps 760 mmHg 81%
    21:00 +23°C° 0.3 mm 2 mps 760 mmHg 82%
    22:00 +22°C° 0.3 mm 3 mps 760 mmHg 84%
    23:00 +22°C° 0.3 mm 3 mps 760 mmHg 85%

    Day after tomorrow, 28 January, Tuesday

    Time Temperature Precipitation Wind Pressure Humidity
    00:00 +22°C° 0.3 mm 3 mps 760 mmHg 86%
    01:00 +22°C° 0.3 mm 3 mps 759 mmHg 88%
    02:00 +22°C° 0.6 mm 3 mps 759 mmHg 89%
    03:00 +21°C° 0.6 mm 4 mps 759 mmHg 90%
    04:00 +21°C° 0.6 mm 4 mps 758 mmHg 92%
    05:00 +21°C° 0.5 mm 4 mps 758 mmHg 92%
    06:00 +21°C° 0.5 mm 4 mps 758 mmHg 92%
    07:00 +21°C° 0.5 mm 4 mps 759 mmHg 92%
    08:00 +23°C° 0.2 mm 4 mps 759 mmHg 85%
    09:00 +26°C° 0.2 mm 4 mps 759 mmHg 78%
    10:00 +27°C° 0.2 mm 4 mps 760 mmHg 71%
    11:00 +28°C° 0.5 mm 4 mps 759 mmHg 68%
    12:00 +29°C° 0.5 mm 4 mps 759 mmHg 66%
    13:00 +29°C° 0.5 mm 4 mps 758 mmHg 63%
    14:00 +29°C° 0.6 mm 4 mps 758 mmHg 65%
    15:00 +28°C° 0.6 mm 4 mps 757 mmHg 68%
    16:00 +28°C° 0.6 mm 4 mps 757 mmHg 70%
    17:00 +26°C° 0.7 mm 3 mps 757 mmHg 75%
    18:00 +25°C° 0.7 mm 3 mps 758 mmHg 80%
    19:00 +24°C° 0.7 mm 3 mps 758 mmHg 85%
    20:00 +24°C° 0.3 mm 3 mps 758 mmHg 86%
    21:00 +23°C° 0.3 mm 2 mps 759 mmHg 87%
    22:00 +23°C° 0.3 mm 2 mps 759 mmHg 88%
    23:00 +23°C° 0.1 mm 2 mps 759 mmHg 89%

    29 January, Wednesday

    Time Temperature Precipitation Wind Pressure Humidity
    00:00 +22°C° 0.1 mm 3 mps 759 mmHg 90%
    01:00 +21°C° 0.1 mm 3 mps 759 mmHg 91%
    02:00 +21°C° 0 mm 3 mps 759 mmHg 91%
    03:00 +21°C° 0 mm 3 mps 758 mmHg 91%
    04:00 +21°C° 0 mm 3 mps 758 mmHg 91%
    05:00 +21°C° 0 mm 3 mps 758 mmHg 92%
    06:00 +21°C° 0 mm 3 mps 759 mmHg 93%
    07:00 +20°C° 0 mm 3 mps 759 mmHg 93%
    08:00 +22°C° 0 mm 3 mps 759 mmHg 86%
    09:00 +25°C° 0 mm 3 mps 760 mmHg 79%
    10:00 +27°C° 0 mm 3 mps 760 mmHg 71%
    11:00 +28°C° 0 mm 3 mps 760 mmHg 65%
    12:00 +29°C° 0 mm 4 mps 759 mmHg 59%
    13:00 +30°C° 0 mm 4 mps 759 mmHg 54%
    14:00 +29°C° 0 mm 4 mps 759 mmHg 57%
    15:00 +29°C° 0 mm 5 mps 758 mmHg 60%
    16:00 +28°C° 0 mm 5 mps 758 mmHg 64%
    17:00 +27°C° 0 mm 5 mps 758 mmHg 69%
    18:00 +25°C° 0 mm 4 mps 759 mmHg 74%
    19:00 +23°C° 0 mm 4 mps 759 mmHg 80%
    20:00 +23°C° 0 mm 4 mps 759 mmHg 80%
    21:00 +22°C° 0 mm 3 mps 760 mmHg 81%
    22:00 +22°C° 0 mm 3 mps 760 mmHg 81%
    23:00 +22°C° 0 mm 3 mps 760 mmHg 79%

    30 January, Thursday

    Time Temperature Precipitation Wind Pressure Humidity
    00:00 +21°C° 0 mm 3 mps 760 mmHg 78%
    01:00 +21°C° 0 mm 2 mps 760 mmHg 76%
    02:00 +21°C° 0 mm 2 mps 759 mmHg 76%
    03:00 +20°C° 0 mm 2 mps 759 mmHg 76%
    04:00 +20°C° 0 mm 2 mps 759 mmHg 76%
    05:00 +20°C° 0 mm 2 mps 760 mmHg 77%
    06:00 +20°C° 0 mm 2 mps 760 mmHg 78%
    07:00 +20°C° 0 mm 2 mps 761 mmHg 79%
    08:00 +23°C° 0 mm 2 mps 761 mmHg 74%
    09:00 +25°C° 0 mm 2 mps 762 mmHg 68%
    10:00 +27°C° 0 mm 2 mps 762 mmHg 63%
    11:00 +28°C° 0 mm 2 mps 762 mmHg 60%
    12:00 +28°C° 0 mm 2 mps 761 mmHg 58%
    13:00 +29°C° 0 mm 2 mps 761 mmHg 56%
    14:00 +29°C° 0 mm 3 mps 761 mmHg 58%
    15:00 +28°C° 0 mm 4 mps 761 mmHg 61%
    16:00 +28°C° 0 mm 4 mps 760 mmHg 63%
    17:00 +26°C° 0 mm 4 mps 761 mmHg 68%
    18:00 +25°C° 0 mm 4 mps 761 mmHg 73%
    19:00 +22°C° 0 mm 4 mps 761 mmHg 79%
    20:00 +22°C° 0 mm 4 mps 761 mmHg 81%
    21:00 +21°C° 0 mm 4 mps 762 mmHg 83%
    22:00 +21°C° 0 mm 4 mps 762 mmHg 85%
    23:00 +21°C° 0 mm 4 mps 762 mmHg 86%

    31 January, Friday

    Time Temperature Precipitation Wind Pressure Humidity
    00:00 +20°C° 0 mm 4 mps 761 mmHg 87%
    01:00 +20°C° 0 mm 4 mps 761 mmHg 88%
    02:00 +20°C° 0 mm 4 mps 761 mmHg 87%
    03:00 +20°C° 0 mm 4 mps 761 mmHg 87%
    04:00 +20°C° 0 mm 4 mps 760 mmHg 86%
    05:00 +20°C° 0 mm 4 mps 761 mmHg 87%
    06:00 +20°C° 0 mm 4 mps 761 mmHg 87%
    07:00 +20°C° 0 mm 4 mps 761 mmHg 88%
    08:00 +21°C° 0 mm 5 mps 762 mmHg 82%
    09:00 +23°C° 0 mm 5 mps 762 mmHg 76%
    10:00 +26°C° 0 mm 6 mps 762 mmHg 69%
    11:00 +27°C° 0 mm 5 mps 762 mmHg 66%
    12:00 +28°C° 0 mm 5 mps 761 mmHg 63%
    13:00 +30°C° 0 mm 4 mps 761 mmHg 60%
    14:00 +29°C° 0 mm 5 mps 760 mmHg 62%
    15:00 +29°C° 0 mm 5 mps 760 mmHg 64%
    16:00 +29°C° 0 mm 5 mps 759 mmHg 66%
    17:00 +27°C° 0 mm 5 mps 759 mmHg 73%
    18:00 +26°C° 0 mm 5 mps 760 mmHg 80%
    19:00 +23°C° 0 mm 5 mps 760 mmHg 88%
    20:00 +23°C° 0 mm 5 mps 760 mmHg 90%
    21:00 +23°C° 0 mm 5 mps 760 mmHg 92%
    22:00 +22°C° 0 mm 5 mps 761 mmHg 94%
    23:00 +22°C° 0 mm 5 mps 760 mmHg 94%
    Show more